User: anonymous   Login
Location: Clinton NY
(43.0598°N, 75.3602°W)
Time: 15:17:41
(UTC-04:00)
Language:

Cosmos-2242 - Orbit

View from above orbital plane
View from above orbital plane
View from above satellite
View from above satellite

Ground track
Ground track

The orbit data is extracted from the following two-line orbital elements,

1 22626U 93024A   16124.88938681  .00000612  00000-0  64720-4 0  9993
2 22626  82.5233  67.6074 0020317  42.8342 317.4454 14.87433224245309
Epoch (UTC): 03 May 2016 21:20:43
Eccentricity: 0.0020317
inclination: 82.5233°
perigee height: 592 km
apogee height: 620 km
right ascension of ascending node: 67.6074°
argument of perigee: 42.8342°
revolutions per day: 14.87433224
mean anomaly at epoch: 317.4454°
orbit number at epoch: 24530

The dashed part of the orbit path shows where the satellite is in the earth's shadow,  

DLR